Tracking 19638 objects as of 19-Apr-2019
HD Live streaming from Space Station
objects crossing your sky now

THORAD DELTA 1 DEB

Track THORAD DELTA 1 DEB now!
10-day predictions


NORAD ID: 8168
Int'l Code: 1974-089AJ
Perigee: 1,444.6 km
Apogee: 1,476.8 km
Inclination: 101.6 °
Period: 115.0 minutes
Semi major axis: 7831 km
RCS: 0.3023 m2 (medium)
Launch date: November 15, 1974
Source: United States (US)
Launch site: AIR FORCE WESTERN TEST RANGE (AFWTR)

Note: This is SATELLITE DEBRIS
aabbcc
Your satellite tracking list
Your tracking list is empty




NASA's NSSDC Master Catalog

Two Line Element Set (TLE):
1  8168U 74089AJ  19108.78551812 -.00000038 +00000-0 +40257-4 0  9991
2  8168 101.5829 065.5381 0020539 273.4127 145.0954 12.52625210030933
Source of the keplerian elements: AFSPC